ATLAS 5 CENTAUR DEB, 44689

Orbit data source: Space-Track

ATLAS 5 CENTAUR DEB, 44689 is space debris in HEO originally from a launch on Wed, 17 Oct 2018 UTC launched from the Air Force Eastern Test Range (AFETR). Debris objects in space refer to the collection of defunct objects orbiting the Earth. Examples of debris include non-operational satellites, rocket bodies, and fragments generated from explosions, collisions, or faulty payload assembly.

Loading next visibility...
Identifier
44689, 2018-079BB
Orbit
HEO
Country
Flag of USUS
Related business
Flag of USUnited Launch Alliance/Lockheed Martin (US)
Manufacturer
ULA Decatur
Mission
Spacecraft
Bus & Motor
Unknown
Mass
Unknown
Launch date (UTC)
2018-10-17 (7 years ago)
Launch vehicle
Unknown
Launch site
Air Force Eastern Test Range (AFETR)
Object type
Payload
Rocket body
Debris
Shape & HBR
Unknown shape, 1.1 m
Radar Cross Section
RCS unknown

Expand to show TLE details & history
Last TLE update: 1 week ago

TLE from 1 week ago
0 ATLAS 5 CENTAUR DEB
1 44689U 18079BB  25334.06980480 -.00000130  00000-0  00000+0 0  9992
2 44689  12.8935 328.0874 4826395 114.4819 302.4722  2.13306684 49048
Epoch: 2025-11-30T01:40Z
TLE epoch observation values (Epoch: 2025-11-30T01:40:31.134Z)
Latitude
-0.00005°
Longitude
-126.28483°
Altitude
18,045.4 km
Speed
4.124 km/s
True Right ascension
21h 52m 08s
True Declination
0° 00' 00"
Sunlit
Object was in daylight at epoch
Visualization orbit readout
Latitude
Unknown
Longitude
Unknown
Altitude
Unknown
Speed
Unknown
Apparent Right ascension
Unknown
Apparent Declination
Unknown
Sunlit
N/A
Visualization observer readout
Local Sidereal Time
12:29:14
Azimuth
Unknown
Elevation
Unknown
Doppler factor
Unknown
Orbital elements
Apogee altitude
31,420.422 km
Perigee altitude
6,811.503 km
Semi-major axis
25,494.099 km
Eccentricity
0.48264
Inclination
12.8935°
RAAN
328.0874°
Arg. of periapsis
114.4819°
True anomaly
245.54372°
Mean anomaly
302.4722°
Eccentric anomaly
274.92092°
Mean motion
0.53319 °/min
Orbital period
675.18 mins
BSTAR
0
Loading maneuver chart data...
Computing Atmospheric mass density...

Documentation

Showing up to 5 results
|